Погода в Пителино

Россия / Рязанская область     54°34′31″N   41°48′55″E
темп.,
°C
ветер,
м/с
пор.,
м/с
влажн.,
%
обл.,
%
осадки,
мм/ч
давл.,
гПа
погр.,
м
27 января, чт
чт2700:00−17юз239969 0.0 101735
03:00−19юз2210063 0.1 101813
06:00−18ююз2210090 0.1 101826
09:00−18ююз239984 0.1 101948
12:00−13ююз239484 0.0 1018156
15:00−12ю359653 0.1 1018143
18:00−18ю349960 0.0 101845
21:00−18ю369845 0.0 101879
28 января, пт
пт2800:00−19ю379982 0.0 101783
03:00−18ю389820 0.0 1017109
06:00−19ю389953 0.0 1015121
09:00−18ю4119854 0.0 1015164
12:00−13ю5129467 0.0 1014299
15:00−10ююв5129243 0.0 1012397
18:00−11ююв5139289 0.0 1011287
21:00−10ююв51394100 0.1 1010359
29 января, сб
сб2900:00−9ююв51195100 0.4 1009361
03:00−8ююв41095100 1.1 1008308
06:00−8ююв499595 0.3 1007265
09:00−9ююв3896100 0.4 1007176
12:00−5ю3695100 0.2 1006227
15:00−3ю359685 0.4 1006279
18:00−3ю3697100 0.1 1006210
21:00−6ююз369875 0.3 100691
30 января, вс
вс3000:00−7ююз3698100 0.1 100581
03:00−7ююз369887 0.1 100495
06:00−6юз369621 0.2 1002149
09:00−10юз369885 0.2 100399
12:00−6ююз5119297 0.0 1001493
15:00−7ю71390100 0.0 999519
18:00−6ю81794100 0.3 997658
21:00−4ю81594100 1.2 995893
31 января, пн
пн3100:00−4ю71594100 0.6 993691
03:00−3ююв61496100 1.1 992579
06:00−1ю61296100 0.6 991678
09:00−2ю51192100 0.6 991744
12:00−1ююв61395100 0.1 991756
15:000ююв71396100 0.9 989926
18:00−1ююв61298100 1.1 988771
21:00−1ююз61195100 1.6 989497